Location: Cannifist
(18.2333°N, 63.0167°W)
Time: 10:56:11
(UTC+00:00)

BREEZE-M DEB (TANK) - Pass Details

Date: 27 February 2020
Orbit: 322 x 16737 km, 49.4° (Epoch: 06 April)

Event Time Altitude Azimuth Distance (km) Brightness Sun altitude
Rises 23:00:03 0° 327° (NNW) 3,980 7.6 -10.9°
Reaches altitude 10° 23:04:19 10° 345° (NNW) 1,957 5.8 -11.9°
Maximum altitude 23:06:57 18° 32° (NNE) 1,079 4.0 -12.5°
Enters shadow 23:07:27 17° 48° (NE) 1,050 3.8 -12.6°
